Showing default

PICO-02A021, 60538

Orbit data source: Space-Track

PICO-02A021, 60538 is a payload satellite owned by Apogeo Space (IT) in SSO that was launched on Fri, 16 Aug 2024 UTC via an FALCON 9 launch vehicle from the Air Force Western Test Range (AFWTR). Payload-class satellites include a variety of spacecraft equipped with specific instruments for various scientific and technological missions. These include communications satellites like Starlink; space stations such as the ISS; scientific satellites like the Hubble; Earth observation satellites from companies like Planet Labs, Umbra, and HawkEye 360; GPS; miniature CubeSats for education and research; and military/defense satellites.

Loading next visibility...
Identifier
60538, 2024-149BY
Orbit
SSO
Country
Flag of ITIT
Related business
Manufacturer
Apogeo Space
Mission
Operational Commercial Communications
Bus & Motor
CUBESAT 0.3U, Unknown motor
Mass
0.5 kg wet, 0.5 kg dry
Launch date (UTC)
2024-08-16 (1 year ago)
Launch vehicle
FALCON 9
Launch site
Air Force Western Test Range (AFWTR)
Object type
Payload
Rocket body
Debris
Shape & HBR
Box, 0.1 m
Radar Cross Section
0.008 m², Small (<0.1 m²)

Expand to show TLE details & history
Last TLE update: 23 hours ago

TLE from 23 hours ago
0 PICO-02A021
1 60538U 24149BY  26034.17671465  .00007557  00000-0  58556-3 0  9990
2 60538  97.6805 114.2614 0005342  93.8516 266.3320 15.01689395 79616
Epoch: 2026-02-03T04:14Z
TLE epoch observation values (Epoch: 2026-02-03T04:14:28.145Z)
Latitude
0.00003°
Longitude
-82.71728°
Altitude
564.983 km
Speed
7.579 km/s
True Right ascension
07h 37m 02s
True Declination
0° 00' 00"
Sunlit
Object was in full shadow at epoch
Visualization orbit readout
Latitude
Unknown
Longitude
Unknown
Altitude
Unknown
Speed
Unknown
Apparent Right ascension
Unknown
Apparent Declination
Unknown
Sunlit
N/A
Visualization observer readout
Local Sidereal Time
05:03:38
Azimuth
Unknown
Elevation
Unknown
Doppler factor
Unknown
Orbital elements
Apogee altitude
562.394 km
Perigee altitude
554.983 km
Semi-major axis
6,936.826 km
Eccentricity
0.00053
Inclination
97.6805°
RAAN
114.2614°
Arg. of periapsis
93.8516°
True anomaly
266.27091°
Mean anomaly
266.332°
Eccentric anomaly
266.30146°
Mean motion
3.75666 °/min
Orbital period
95.83 mins
BSTAR
0.00058556
Loading maneuver chart data...
Computing Atmospheric mass density...
Loading historical data...
Loading historical data...
Loading historical data...
Loading historical data...
Loading historical data...
Loading historical data...
Loading historical data...

Documentation

Showing up to 5 results
|